Time,TemperatureF,DewpointF,PressureIn,WindDirection,WindDirectionDegrees,WindSpeedMPH,WindSpeedGustMPH,Humidity,HourlyPrecipIn,Conditions,Clouds,dailyrainin,SoftwareType,DateUTC
2013-11-07 00:02:00,50.0,48.0,-100.00,North,-999,0.0,0.0,93,-99.99,,,-99.99,,2013-11-07 08:02:00,
2013-11-07 00:42:00,50.0,48.0,-100.00,North,-999,0.0,0.0,93,-99.99,,,-99.99,,2013-11-07 08:42:00,
2013-11-07 01:21:00,50.0,48.0,-100.00,North,-999,0.0,0.0,93,-99.99,,,-99.99,,2013-11-07 09:21:00,
2013-11-07 01:42:00,50.0,48.0,-100.00,North,-999,0.0,0.0,93,-99.99,,,-99.99,,2013-11-07 09:42:00,
2013-11-07 03:11:00,50.0,48.0,-100.00,North,-999,0.0,0.0,93,-99.99,,,-99.99,,2013-11-07 11:11:00,
2013-11-07 03:42:00,50.0,48.0,-100.00,North,-999,0.0,0.0,93,-99.99,,,-99.99,,2013-11-07 11:42:00,
2013-11-07 04:42:00,50.0,48.0,-100.00,North,-999,0.0,0.0,93,-99.99,,,-99.99,,2013-11-07 12:42:00,
2013-11-07 06:11:00,50.0,48.0,-100.00,North,-999,0.0,0.0,93,-99.99,,,-99.99,,2013-11-07 14:11:00,
2013-11-07 07:43:00,47.0,45.0,-100.00,West,270,4.0,8.0,93,-99.99,,,-99.99,,2013-11-07 15:43:00,
2013-11-07 08:13:00,46.0,44.0,-100.00,SW,225,1.0,2.0,93,-99.99,,,-99.99,,2013-11-07 16:13:00,
2013-11-07 08:23:00,46.0,44.0,-100.00,SW,225,1.0,2.0,93,-99.99,,,-99.99,,2013-11-07 16:23:00,
2013-11-07 08:42:00,46.0,44.0,-100.00,West,270,3.0,6.0,93,-99.99,,,-99.99,,2013-11-07 16:42:00,
2013-11-07 08:52:00,46.0,44.0,-100.00,SW,225,1.0,2.0,93,-99.99,,,-99.99,,2013-11-07 16:52:00,
2013-11-07 09:02:00,46.0,44.0,-100.00,SW,225,1.0,2.0,93,-99.99,,,-99.99,,2013-11-07 17:02:00,
2013-11-07 09:42:00,46.0,44.0,-100.00,West,270,3.0,6.0,93,-99.99,,,-99.99,,2013-11-07 17:42:00,
2013-11-07 10:23:00,47.0,45.0,-100.00,West,270,3.0,6.0,93,-99.99,,,-99.99,,2013-11-07 18:23:00,
2013-11-07 10:42:00,47.0,45.0,-100.00,West,270,3.0,6.0,93,-99.99,,,-99.99,,2013-11-07 18:42:00,
2013-11-07 11:42:00,48.0,46.0,-100.00,SW,225,3.0,8.0,93,-99.99,,,-99.99,,2013-11-07 19:42:00,
2013-11-07 12:21:00,48.0,46.0,-100.00,SW,225,1.0,3.0,93,-99.99,,,-99.99,,2013-11-07 20:21:00,
2013-11-07 12:42:00,48.0,46.0,-100.00,SW,225,4.0,9.0,93,-99.99,,,-99.99,,2013-11-07 20:42:00,
2013-11-07 13:22:00,49.0,46.0,-100.00,SW,225,3.0,6.0,91,-99.99,,,-99.99,,2013-11-07 21:22:00,
2013-11-07 13:43:00,49.0,46.0,-100.00,SW,225,4.0,8.0,91,-99.99,,,-99.99,,2013-11-07 21:43:00,
2013-11-07 14:43:00,48.0,44.0,-100.00,West,270,2.0,5.0,86,-99.99,,,-99.99,,2013-11-07 22:43:00,
2013-11-07 15:43:00,48.0,43.0,-100.00,SW,225,4.0,6.0,83,-99.99,,,-99.99,,2013-11-07 23:43:00,
2013-11-07 16:22:00,47.0,42.0,-100.00,SW,225,3.0,7.0,83,-99.99,,,-99.99,,2013-11-08 00:22:00,
2013-11-07 16:42:00,47.0,42.0,-100.00,West,270,1.0,4.0,82,-99.99,,,-99.99,,2013-11-08 00:42:00,
2013-11-07 18:21:00,47.0,41.0,-100.00,SW,225,3.0,6.0,79,-99.99,,,-99.99,,2013-11-08 02:21:00,
2013-11-07 18:42:00,46.0,42.0,-100.00,South,180,1.0,3.0,84,-99.99,,,-99.99,,2013-11-08 02:42:00,
2013-11-07 19:11:00,46.0,43.0,-100.00,SW,225,2.0,3.0,88,-99.99,,,-99.99,,2013-11-08 03:11:00,
2013-11-07 19:21:00,46.0,43.0,-100.00,SW,225,2.0,3.0,88,-99.99,,,-99.99,,2013-11-08 03:21:00,
2013-11-07 19:44:00,46.0,43.0,-100.00,SW,225,3.0,4.0,89,-99.99,,,-99.99,,2013-11-08 03:44:00,
2013-11-07 20:43:00,47.0,44.0,-100.00,SW,225,1.0,1.0,90,-99.99,,,-99.99,,2013-11-08 04:43:00,
2013-11-07 21:43:00,46.0,44.0,-100.00,SW,225,1.0,3.0,91,-99.99,,,-99.99,,2013-11-08 05:43:00,
2013-11-07 22:23:00,46.0,44.0,-100.00,North,-999,0.0,0.0,91,-99.99,,,-99.99,,2013-11-08 06:23:00,
2013-11-07 22:42:00,46.0,44.0,-100.00,SW,225,0.0,1.0,91,-99.99,,,-99.99,,2013-11-08 06:42:00,
2013-11-07 22:52:00,46.0,44.0,-100.00,North,-999,0.0,0.0,91,-99.99,,,-99.99,,2013-11-08 06:52:00,
2013-11-07 23:01:00,46.0,44.0,-100.00,North,-999,0.0,0.0,91,-99.99,,,-99.99,,2013-11-08 07:01:00,
2013-11-07 23:42:00,46.0,44.0,-100.00,SW,225,2.0,4.0,91,-99.99,,,-99.99,,2013-11-08 07:42:00,